| time (UTC) | temp F | wind direction | speed MPH | gust MPH | rain 1hr in | rain 24hr in | rain mn in | humidity % | barometer mb |
| 20260902120525 | 79 | 242 | 2.0 | 3.0 | 0.00 | 0.00 | 0.00 | 93 | 1014.7 |
| 20260902120021 | 79 | 273 | 3.0 | 6.0 | 0.00 | 0.00 | 0.00 | 93 | 1014.8 |
| 20260902115515 | 80 | 235 | 4.0 | 6.0 | 0.00 | 0.00 | 0.00 | 93 | 1014.6 |
| 20260902115012 | 80 | 227 | 2.0 | 3.0 | 0.00 | 0.00 | 0.00 | 93 | 1014.6 |
| 20260902114507 | 80 | 212 | 0.0 | 4.0 | 0.00 | 0.00 | 0.00 | 93 | 1014.7 |
| 20260902114002 | 80 | 224 | 0.0 | 4.0 | 0.00 | 0.00 | 0.00 | 93 | 1014.6 |
| 20260902113458 | 80 | 213 | 3.0 | 3.0 | 0.00 | 0.00 | 0.00 | 93 | 1014.5 |
| 20260902112957 | 80 | 245 | 2.0 | 7.0 | 0.00 | 0.00 | 0.00 | 92 | 1014.7 |
| 20260902112453 | 80 | 217 | 2.0 | 6.0 | 0.00 | 0.00 | 0.00 | 92 | 1014.7 |
| 20260902111949 | 80 | 225 | 1.0 | 3.0 | 0.00 | 0.00 | 0.00 | 92 | 1014.6 |
| 20260902111446 | 80 | 238 | 2.0 | 7.0 | 0.00 | 0.00 | 0.00 | 92 | 1014.5 |
| 20260902110941 | 80 | 260 | 1.0 | 2.0 | 0.00 | 0.00 | 0.00 | 92 | 1014.6 |
| 20260902110437 | 80 | 233 | 1.0 | 3.0 | 0.00 | 0.00 | 0.00 | 92 | 1014.6 |
| 20260902105931 | 80 | 241 | 3.0 | 3.0 | 0.00 | 0.00 | 0.00 | 92 | 1014.4 |
| 20260902105426 | 80 | 242 | 1.0 | 4.0 | 0.00 | 0.00 | 0.00 | 92 | 1014.4 |
| 20260902104921 | 80 | 265 | 2.0 | 4.0 | 0.00 | 0.00 | 0.00 | 92 | 1014.5 |
| 20260902104418 | 80 | 253 | 2.0 | 6.0 | 0.00 | 0.00 | 0.00 | 91 | 1014.6 |
| 20260902103917 | 80 | 214 | 0.0 | 3.0 | 0.00 | 0.00 | 0.00 | 91 | 1014.6 |
| 20260902103413 | 80 | 261 | 2.0 | 3.0 | 0.00 | 0.00 | 0.00 | 90 | 1014.7 |
| 20260902102908 | 80 | 260 | 3.0 | 4.0 | 0.00 | 0.00 | 0.00 | 90 | 1014.7 |
| 20260902102405 | 80 | 214 | 1.0 | 3.0 | 0.00 | 0.00 | 0.00 | 90 | 1014.8 |
| 20260902101900 | 80 | 221 | 0.0 | 2.0 | 0.00 | 0.00 | 0.00 | 90 | 1014.7 |
| 20260902101355 | 80 | 245 | 1.0 | 3.0 | 0.00 | 0.00 | 0.00 | 90 | 1014.7 |
| 20260902100854 | 80 | 231 | 1.0 | 3.0 | 0.00 | 0.00 | 0.00 | 89 | 1014.6 |
| 20260902100354 | 80 | 229 | 1.0 | 2.0 | 0.00 | 0.00 | 0.00 | 89 | 1014.5 |
| 20260902095849 | 80 | 253 | 2.0 | 6.0 | 0.00 | 0.00 | 0.00 | 89 | 1014.5 |
| 20260902095348 | 80 | 252 | 2.0 | 3.0 | 0.00 | 0.00 | 0.00 | 89 | 1014.6 |
| 20260902094842 | 80 | 225 | 2.0 | 3.0 | 0.00 | 0.00 | 0.00 | 89 | 1014.8 |
| 20260902094339 | 80 | 245 | 2.0 | 4.0 | 0.00 | 0.00 | 0.00 | 89 | 1014.8 |
| 20260902093838 | 80 | 240 | 1.0 | 3.0 | 0.00 | 0.00 | 0.00 | 89 | 1014.6 |
| 20260902093333 | 80 | 211 | 4.0 | 4.0 | 0.00 | 0.00 | 0.00 | 89 | 1014.7 |
| 20260902092832 | 80 | 243 | 2.0 | 4.0 | 0.00 | 0.00 | 0.00 | 89 | 1014.7 |
| 20260902092328 | 80 | 248 | 2.0 | 4.0 | 0.00 | 0.00 | 0.00 | 89 | 1014.6 |
| 20260902091822 | 80 | 214 | 0.0 | 3.0 | 0.00 | 0.00 | 0.00 | 89 | 1014.6 |
| 20260902091318 | 80 | 223 | 1.0 | 3.0 | 0.00 | 0.00 | 0.00 | 89 | 1014.6 |
| 20260902090815 | 80 | 255 | 3.0 | 3.0 | 0.00 | 0.00 | 0.00 | 88 | 1014.6 |
| 20260902090314 | 80 | 223 | 1.0 | 6.0 | 0.00 | 0.00 | 0.00 | 87 | 1014.5 |
| 20260902085813 | 80 | 221 | 1.0 | 3.0 | 0.00 | 0.00 | 0.00 | 87 | 1014.6 |
| 20260902085308 | 80 | 215 | 2.0 | 3.0 | 0.00 | 0.00 | 0.00 | 86 | 1014.7 |
| 20260902084804 | 80 | 265 | 2.0 | 4.0 | 0.00 | 0.00 | 0.00 | 86 | 1014.7 |
| 20260902084301 | 79 | 220 | 2.0 | 2.0 | 0.00 | 0.00 | 0.00 | 86 | 1014.6 |
| 20260902083755 | 79 | 222 | 1.0 | 2.0 | 0.00 | 0.00 | 0.00 | 86 | 1014.4 |
| 20260902083249 | 79 | 224 | 0.0 | 1.0 | 0.00 | 0.00 | 0.00 | 86 | 1014.5 |
| 20260902082744 | 79 | 224 | 0.0 | 1.0 | 0.00 | 0.00 | 0.00 | 86 | 1014.5 |
| 20260902082241 | 79 | 223 | 0.0 | 2.0 | 0.00 | 0.00 | 0.00 | 86 | 1014.5 |
| 20260902081737 | 79 | 223 | 0.0 | 2.0 | 0.00 | 0.00 | 0.00 | 86 | 1014.7 |
| 20260902081232 | 79 | 221 | 0.0 | 1.0 | 0.00 | 0.00 | 0.00 | 86 | 1014.7 |
| 20260902080727 | 79 | 228 | 1.0 | 2.0 | 0.00 | 0.00 | 0.00 | 86 | 1014.5 |
| 20260902080225 | 79 | 227 | 0.0 | 1.0 | 0.00 | 0.00 | 0.00 | 87 | 1014.5 |
| 20260902075723 | 79 | 224 | 0.0 | 1.0 | 0.00 | 0.00 | 0.00 | 86 | 1014.4 |
| 20260902075220 | 79 | 236 | 1.0 | 3.0 | 0.00 | 0.00 | 0.00 | 85 | 1014.5 |
| 20260902074719 | 79 | 220 | 0.0 | 2.0 | 0.00 | 0.00 | 0.00 | 85 | 1014.6 |
| 20260902074215 | 79 | 230 | 1.0 | 2.0 | 0.00 | 0.00 | 0.00 | 86 | 1014.6 |
| 20260902073710 | 79 | 227 | 0.0 | 2.0 | 0.00 | 0.00 | 0.00 | 86 | 1014.7 |
| 20260902073206 | 79 | 229 | 0.0 | 0.0 | 0.00 | 0.00 | 0.00 | 87 | 1014.7 |
| 20260902072702 | 79 | 233 | 0.0 | 1.0 | 0.00 | 0.00 | 0.00 | 87 | 1014.7 |
| 20260902072158 | 79 | 229 | 1.0 | 1.0 | 0.00 | 0.00 | 0.00 | 87 | 1014.6 |
| 20260902071654 | 79 | 243 | 2.0 | 2.0 | 0.00 | 0.00 | 0.00 | 87 | 1014.6 |
| 20260902071149 | 79 | 223 | 1.0 | 4.0 | 0.00 | 0.00 | 0.00 | 87 | 1014.7 |
| 20260902070645 | 79 | 246 | 1.0 | 2.0 | 0.00 | 0.00 | 0.00 | 88 | 1014.8 |
| 20260902070144 | 79 | 258 | 2.0 | 4.0 | 0.00 | 0.00 | 0.00 | 87 | 1014.9 |
| 20260902065643 | 78 | 272 | 1.0 | 2.0 | 0.00 | 0.00 | 0.00 | 88 | 1015.0 |
| 20260902065139 | 79 | 227 | 1.0 | 2.0 | 0.00 | 0.00 | 0.00 | 88 | 1014.8 |
| 20260902064635 | 79 | 227 | 1.0 | 2.0 | 0.00 | 0.00 | 0.00 | 88 | 1014.8 |
| 20260902064130 | 79 | 233 | 1.0 | 2.0 | 0.00 | 0.00 | 0.00 | 88 | 1014.7 |
| 20260902063625 | 79 | 225 | 1.0 | 2.0 | 0.00 | 0.00 | 0.00 | 87 | 1014.9 |
| 20260902063120 | 78 | 226 | 0.0 | 1.0 | 0.00 | 0.00 | 0.00 | 88 | 1014.9 |
| 20260902062619 | 78 | 231 | 0.0 | 2.0 | 0.00 | 0.00 | 0.00 | 88 | 1014.8 |
| 20260902062115 | 78 | 245 | 1.0 | 2.0 | 0.00 | 0.00 | 0.00 | 88 | 1014.9 |
| 20260902061614 | 78 | 223 | 1.0 | 2.0 | 0.00 | 0.00 | 0.00 | 88 | 1014.8 |
| 20260902061110 | 78 | 240 | 1.0 | 2.0 | 0.00 | 0.00 | 0.00 | 89 | 1014.8 |
| 20260902060606 | 78 | 227 | 2.0 | 2.0 | 0.00 | 0.00 | 0.00 | 89 | 1014.8 |
| 20260902055558 | 78 | 226 | 1.0 | 2.0 | 0.00 | 0.00 | 0.00 | 89 | 1014.5 |
| 20260902055054 | 78 | 231 | 0.0 | 1.0 | 0.00 | 0.00 | 0.00 | 89 | 1014.7 |
| 20260902054554 | 78 | 220 | 0.0 | 0.0 | 0.00 | 0.00 | 0.00 | 89 | 1014.8 |
| 20260902054050 | 78 | 225 | 0.0 | 1.0 | 0.00 | 0.00 | 0.00 | 89 | 1014.6 |
| 20260902053545 | 78 | 224 | 1.0 | 2.0 | 0.00 | 0.00 | 0.00 | 89 | 1014.6 |
| 20260902053044 | 78 | 228 | 0.0 | 1.0 | 0.00 | 0.00 | 0.00 | 90 | 1014.5 |
| 20260902052539 | 78 | 220 | 0.0 | 1.0 | 0.00 | 0.00 | 0.00 | 90 | 1014.3 |
| 20260902052035 | 78 | 227 | 0.0 | 0.0 | 0.00 | 0.00 | 0.00 | 90 | 1014.5 |
| 20260902051534 | 78 | 227 | 0.0 | 0.0 | 0.00 | 0.00 | 0.00 | 90 | 1014.7 |
| 20260902051033 | 78 | 229 | 0.0 | 1.0 | 0.00 | 0.00 | 0.00 | 91 | 1014.8 |
| 20260902050528 | 78 | 217 | 1.0 | 2.0 | 0.00 | 0.00 | 0.00 | 91 | 1014.6 |
| 20260902050024 | 78 | 228 | 0.0 | 1.0 | 0.00 | 0.03 | 0.03 | 91 | 1014.6 |
| 20260902045519 | 78 | 228 | 0.0 | 1.0 | 0.00 | 0.03 | 0.03 | 91 | 1014.7 |
| 20260902045015 | 78 | 228 | 0.0 | 1.0 | 0.00 | 0.03 | 0.03 | 91 | 1014.7 |
| 20260902044509 | 78 | 229 | 0.0 | 1.0 | 0.00 | 0.03 | 0.03 | 91 | 1014.7 |
| 20260902044005 | 78 | 220 | 1.0 | 1.0 | 0.00 | 0.03 | 0.03 | 91 | 1014.5 |
| 20260902043500 | 78 | 224 | 0.0 | 1.0 | 0.00 | 0.03 | 0.03 | 91 | 1014.8 |
| 20260902042955 | 78 | 226 | 0.0 | 2.0 | 0.00 | 0.03 | 0.03 | 91 | 1014.7 |
| 20260902042455 | 78 | 227 | 0.0 | 2.0 | 0.00 | 0.03 | 0.03 | 92 | 1014.7 |
| 20260902041950 | 78 | 229 | 0.0 | 1.0 | 0.00 | 0.03 | 0.03 | 92 | 1015.0 |
| 20260902041450 | 78 | 229 | 0.0 | 0.0 | 0.00 | 0.03 | 0.03 | 92 | 1014.9 |
| 20260902040951 | 78 | 238 | 0.0 | 2.0 | 0.00 | 0.03 | 0.03 | 92 | 1014.9 |
| 20260902040450 | 78 | 231 | 0.0 | 0.0 | 0.00 | 0.03 | 0.03 | 93 | 1015.0 |
| 20260902035950 | 78 | 231 | 1.0 | 1.0 | 0.00 | 0.03 | 0.03 | 93 | 1015.2 |
| 20260902035445 | 78 | 231 | 0.0 | 1.0 | 0.00 | 0.03 | 0.03 | 93 | 1015.0 |
| 20260902034944 | 78 | 218 | 0.0 | 1.0 | 0.00 | 0.03 | 0.03 | 93 | 1014.9 |
| 20260902034439 | 78 | 232 | 1.0 | 1.0 | 0.00 | 0.03 | 0.03 | 94 | 1014.9 |
| 20260902033939 | 77 | 228 | 1.0 | 2.0 | 0.00 | 0.03 | 0.03 | 95 | 1015.1 |
| 20260902033437 | 77 | 230 | 1.0 | 2.0 | 0.00 | 0.03 | 0.03 | 96 | 1015.0 |
| 20260902032937 | 77 | 224 | 0.0 | 0.0 | 0.00 | 0.03 | 0.03 | 96 | 1015.1 |
| 20260902032432 | 78 | 224 | 0.0 | 0.0 | 0.00 | 0.03 | 0.03 | 96 | 1015.1 |
| 20260902031927 | 78 | 224 | 0.0 | 1.0 | 0.00 | 0.03 | 0.03 | 95 | 1015.0 |
| 20260902031422 | 78 | 225 | 0.0 | 0.0 | 0.00 | 0.03 | 0.03 | 95 | 1015.1 |
| 20260902030919 | 78 | 225 | 0.0 | 0.0 | 0.00 | 0.03 | 0.03 | 95 | 1015.0 |
| 20260902030418 | 78 | 225 | 0.0 | 0.0 | 0.00 | 0.03 | 0.03 | 95 | 1014.9 |
| 20260902025917 | 78 | 225 | 0.0 | 0.0 | 0.00 | 0.03 | 0.03 | 95 | 1014.8 |
| 20260902025413 | 78 | 225 | 0.0 | 1.0 | 0.00 | 0.03 | 0.03 | 95 | 1014.8 |
| 20260902024908 | 78 | 219 | 0.0 | 1.0 | 0.00 | 0.03 | 0.03 | 95 | 1014.8 |
| 20260902024403 | 78 | 233 | 0.0 | 1.0 | 0.00 | 0.03 | 0.03 | 94 | 1014.7 |
| 20260902023858 | 78 | 233 | 0.0 | 0.0 | 0.00 | 0.03 | 0.03 | 94 | 1014.6 |
| 20260902023354 | 78 | 233 | 0.0 | 0.0 | 0.00 | 0.03 | 0.03 | 94 | 1014.5 |
| 20260902022853 | 78 | 233 | 0.0 | 0.0 | 0.00 | 0.03 | 0.03 | 94 | 1014.4 |
| 20260902022348 | 78 | 233 | 0.0 | 0.0 | 0.00 | 0.03 | 0.03 | 94 | 1014.3 |
| 20260902021845 | 78 | 233 | 0.0 | 0.0 | 0.00 | 0.03 | 0.03 | 93 | 1014.3 |
| 20260902021344 | 78 | 255 | 0.0 | 1.0 | 0.00 | 0.03 | 0.03 | 93 | 1014.1 |
| 20260902020840 | 78 | 230 | 1.0 | 1.0 | 0.00 | 0.03 | 0.03 | 93 | 1014.0 |
| 20260902020336 | 78 | 229 | 0.0 | 0.0 | 0.00 | 0.03 | 0.03 | 93 | 1014.2 |
| 20260902015831 | 78 | 348 | 2.0 | 2.0 | 0.00 | 0.03 | 0.03 | 93 | 1014.1 |
| 20260902015327 | 79 | 242 | 0.0 | 0.0 | 0.00 | 0.03 | 0.03 | 93 | 1014.1 |
| 20260902014822 | 79 | 236 | 0.0 | 0.0 | 0.00 | 0.03 | 0.03 | 93 | 1013.8 |
| 20260902014319 | 79 | 235 | 0.0 | 0.0 | 0.00 | 0.03 | 0.03 | 93 | 1013.9 |
| 20260902013817 | 79 | 232 | 0.0 | 0.0 | 0.00 | 0.03 | 0.03 | 93 | 1013.8 |
| 20260902013313 | 79 | 233 | 0.0 | 0.0 | 0.00 | 0.03 | 0.03 | 93 | 1013.6 |
| 20260902012808 | 79 | 233 | 0.0 | 0.0 | 0.00 | 0.03 | 0.03 | 93 | 1013.5 |
| 20260902012309 | 79 | 233 | 0.0 | 0.0 | 0.00 | 0.03 | 0.03 | 93 | 1013.7 |
| 20260902011800 | 79 | 233 | 0.0 | 0.0 | 0.00 | 0.03 | 0.03 | 93 | 1013.7 |
| 20260902011259 | 79 | 233 | 0.0 | 0.0 | 0.00 | 0.03 | 0.03 | 92 | 1013.7 |
| 20260902010758 | 79 | 233 | 0.0 | 0.0 | 0.00 | 0.03 | 0.03 | 92 | 1013.6 |
| 20260902010254 | 79 | 233 | 0.0 | 0.0 | 0.00 | 0.03 | 0.03 | 92 | 1013.7 |
| 20260902005753 | 79 | 233 | 0.0 | 0.0 | 0.00 | 0.03 | 0.03 | 92 | 1013.9 |
| 20260902005249 | 79 | 233 | 0.0 | 0.0 | 0.00 | 0.03 | 0.03 | 92 | 1013.8 |
| 20260902004749 | 80 | 233 | 0.0 | 0.0 | 0.00 | 0.03 | 0.03 | 92 | 1013.8 |
| 20260902004244 | 80 | 233 | 0.0 | 0.0 | 0.00 | 0.03 | 0.03 | 92 | 1013.9 |
| 20260902003738 | 80 | 233 | 0.0 | 0.0 | 0.00 | 0.03 | 0.03 | 91 | 1014.1 |
| 20260902003234 | 80 | 233 | 0.0 | 0.0 | 0.00 | 0.03 | 0.03 | 90 | 1014.0 |
| 20260902002730 | 80 | 233 | 0.0 | 0.0 | 0.00 | 0.03 | 0.03 | 91 | 1014.0 |
| 20260902002229 | 80 | 233 | 0.0 | 0.0 | 0.00 | 0.03 | 0.03 | 91 | 1014.0 |
| 20260902001725 | 80 | 232 | 0.0 | 0.0 | 0.00 | 0.03 | 0.03 | 92 | 1014.1 |
| 20260902001225 | 79 | 231 | 0.0 | 0.0 | 0.00 | 0.03 | 0.03 | 92 | 1013.8 |
| 20260902000720 | 79 | 228 | 0.0 | 0.0 | 0.00 | 0.03 | 0.03 | 92 | 1014.0 |
| 20260902000215 | 79 | 230 | 0.0 | 2.0 | 0.00 | 0.03 | 0.03 | 92 | 1014.0 |
| 20260901235715 | 79 | 234 | 2.0 | 3.0 | 0.00 | 0.03 | 0.03 | 92 | 1013.8 |
| 20260901235209 | 79 | 229 | 0.0 | 1.0 | 0.00 | 0.03 | 0.03 | 93 | 1013.8 |
| 20260901234709 | 79 | 230 | 0.0 | 1.0 | 0.00 | 0.03 | 0.03 | 93 | 1014.1 |
| 20260901234204 | 79 | 225 | 0.0 | 2.0 | 0.00 | 0.03 | 0.03 | 94 | 1013.8 |
| 20260901233704 | 79 | 198 | 1.0 | 1.0 | 0.00 | 0.03 | 0.03 | 93 | 1014.1 |
| 20260901233200 | 79 | 230 | 0.0 | 0.0 | 0.00 | 0.03 | 0.03 | 93 | 1014.1 |
| 20260901232655 | 79 | 221 | 0.0 | 0.0 | 0.07 | 0.03 | 0.03 | 93 | 1014.1 |
| 20260901232150 | 79 | 215 | 0.0 | 0.0 | 0.07 | 0.03 | 0.03 | 93 | 1014.2 |
| 20260901231647 | 79 | 205 | 0.0 | 1.0 | 0.00 | 0.02 | 0.02 | 92 | 1014.1 |
| 20260901231143 | 79 | 220 | 0.0 | 1.0 | 0.05 | 0.02 | 0.02 | 92 | 1014.3 |
| 20260901230638 | 78 | 224 | 0.0 | 2.0 | 0.05 | 0.02 | 0.02 | 91 | 1014.4 |
| 20260901230138 | 78 | 196 | 0.0 | 1.0 | 0.00 | 0.01 | 0.01 | 91 | 1014.5 |
| 20260901225633 | 78 | 163 | 1.0 | 3.0 | 0.00 | 0.01 | 0.01 | 91 | 1014.4 |
| 20260901225127 | 78 | 209 | 2.0 | 3.0 | 0.00 | 0.01 | 0.01 | 91 | 1014.5 |
| 20260901224624 | 78 | 198 | 0.0 | 2.0 | 0.07 | 0.01 | 0.01 | 91 | 1014.5 |
| 20260901224119 | 78 | 233 | 1.0 | 3.0 | 0.07 | 0.01 | 0.01 | 90 | 1014.7 |
| 20260901223614 | 79 | 208 | 4.0 | 6.0 | 0.00 | 0.00 | 0.00 | 88 | 1015.0 |
| 20260901223110 | 80 | 254 | 3.0 | 9.0 | 0.00 | 0.00 | 0.00 | 86 | 1014.9 |
| 20260901222606 | 83 | 160 | 4.0 | 10.0 | 0.00 | 0.00 | 0.00 | 81 | 1015.0 |
| 20260901222101 | 83 | 58 | 5.0 | 9.0 | 0.00 | 0.00 | 0.00 | 76 | 1015.0 |
| 20260901221558 | 84 | 212 | 8.0 | 11.0 | 0.00 | 0.00 | 0.00 | 74 | 1015.0 |
| 20260901221053 | 88 | 129 | 5.0 | 10.0 | 0.00 | 0.00 | 0.00 | 68 | 1015.2 |
| 20260901220552 | 91 | 17 | 6.0 | 10.0 | 0.00 | 0.00 | 0.00 | 59 | 1014.7 |
| 20260901220051 | 91 | 262 | 2.0 | 7.0 | 0.00 | 0.00 | 0.00 | 58 | 1014.4 |
| 20260901215549 | 91 | 308 | 3.0 | 4.0 | 0.00 | 0.00 | 0.00 | 57 | 1014.3 |
| 20260901215044 | 92 | 340 | 4.0 | 6.0 | 0.00 | 0.00 | 0.00 | 57 | 1014.2 |
| 20260901214543 | 92 | 293 | 3.0 | 3.0 | 0.00 | 0.00 | 0.00 | 57 | 1014.2 |
| 20260901214037 | 91 | 241 | 2.0 | 4.0 | 0.00 | 0.00 | 0.00 | 57 | 1014.3 |
| 20260901213532 | 92 | 42 | 2.0 | 4.0 | 0.00 | 0.00 | 0.00 | 57 | 1014.2 |
| 20260901213031 | 92 | 255 | 1.0 | 2.0 | 0.00 | 0.00 | 0.00 | 57 | 1014.2 |
| 20260901212526 | 91 | 238 | 0.0 | 2.0 | 0.00 | 0.00 | 0.00 | 57 | 1014.2 |
| 20260901212023 | 91 | 210 | 2.0 | 7.0 | 0.00 | 0.00 | 0.00 | 58 | 1014.2 |
| 20260901211518 | 92 | 14 | 3.0 | 4.0 | 0.00 | 0.00 | 0.00 | 56 | 1014.3 |
| 20260901211014 | 92 | 175 | 3.0 | 3.0 | 0.00 | 0.00 | 0.00 | 56 | 1014.2 |
| 20260901210509 | 92 | 320 | 2.0 | 4.0 | 0.00 | 0.00 | 0.00 | 55 | 1014.2 |
| 20260901210005 | 92 | 185 | 2.0 | 4.0 | 0.00 | 0.00 | 0.00 | 57 | 1014.2 |
| 20260901205500 | 92 | 249 | 2.0 | 4.0 | 0.00 | 0.00 | 0.00 | 56 | 1014.2 |
| 20260901204954 | 92 | 287 | 2.0 | 3.0 | 0.00 | 0.00 | 0.00 | 58 | 1014.2 |
| 20260901204451 | 92 | 356 | 5.0 | 7.0 | 0.00 | 0.00 | 0.00 | 57 | 1014.2 |
| 20260901203950 | 93 | 5 | 3.0 | 4.0 | 0.00 | 0.00 | 0.00 | 60 | 1014.2 |
| 20260901203445 | 93 | 232 | 0.0 | 1.0 | 0.00 | 0.00 | 0.00 | 61 | 1014.3 |
| 20260901202940 | 92 | 214 | 2.0 | 4.0 | 0.00 | 0.00 | 0.00 | 63 | 1014.6 |
| 20260901202435 | 92 | 220 | 0.0 | 3.0 | 0.00 | 0.00 | 0.00 | 63 | 1014.6 |
| 20260901201931 | 91 | 317 | 2.0 | 3.0 | 0.00 | 0.00 | 0.00 | 65 | 1014.7 |
| 20260901201426 | 91 | 86 | 4.0 | 4.0 | 0.00 | 0.00 | 0.00 | 64 | 1014.9 |
| 20260901200925 | 92 | 213 | 1.0 | 4.0 | 0.00 | 0.00 | 0.00 | 64 | 1015.1 |
| 20260901200415 | 92 | 273 | 2.0 | 6.0 | 0.00 | 0.00 | 0.00 | 65 | 1015.1 |
| 20260901195914 | 91 | 274 | 2.0 | 4.0 | 0.00 | 0.00 | 0.00 | 66 | 1015.4 |
| 20260901195413 | 91 | 220 | 1.0 | 3.0 | 0.00 | 0.00 | 0.00 | 66 | 1015.5 |
| 20260901194908 | 91 | 325 | 3.0 | 3.0 | 0.00 | 0.00 | 0.00 | 65 | 1015.8 |
| 20260901194402 | 91 | 220 | 0.0 | 1.0 | 0.00 | 0.00 | 0.00 | 66 | 1015.9 |
| 20260901193859 | 91 | 243 | 0.0 | 2.0 | 0.00 | 0.00 | 0.00 | 68 | 1015.9 |
| 20260901193357 | 90 | 217 | 0.0 | 1.0 | 0.00 | 0.00 | 0.00 | 67 | 1015.7 |
| 20260901192852 | 89 | 244 | 0.0 | 2.0 | 0.00 | 0.00 | 0.00 | 68 | 1015.8 |
| 20260901192348 | 89 | 215 | 0.0 | 2.0 | 0.00 | 0.00 | 0.00 | 68 | 1015.8 |
| 20260901191844 | 89 | 22 | 2.0 | 3.0 | 0.00 | 0.00 | 0.00 | 68 | 1015.7 |
| 20260901191339 | 89 | 227 | 0.0 | 3.0 | 0.00 | 0.00 | 0.00 | 68 | 1015.7 |
| 20260901190836 | 89 | 334 | 3.0 | 6.0 | 0.00 | 0.00 | 0.00 | 70 | 1015.7 |
| 20260901190334 | 89 | 254 | 2.0 | 3.0 | 0.00 | 0.00 | 0.00 | 69 | 1015.8 |
| 20260901185833 | 88 | 242 | 1.0 | 2.0 | 0.00 | 0.00 | 0.00 | 69 | 1015.6 |
| 20260901185327 | 89 | 231 | 1.0 | 4.0 | 0.00 | 0.00 | 0.00 | 69 | 1015.6 |
| 20260901184822 | 89 | 219 | 3.0 | 3.0 | 0.00 | 0.00 | 0.00 | 70 | 1015.8 |
| 20260901184318 | 89 | 228 | 0.0 | 3.0 | 0.00 | 0.00 | 0.00 | 71 | 1015.8 |
| 20260901183813 | 89 | 310 | 2.0 | 3.0 | 0.00 | 0.00 | 0.00 | 71 | 1015.8 |
| 20260901183312 | 89 | 263 | 2.0 | 4.0 | 0.00 | 0.00 | 0.00 | 72 | 1016.0 |
| 20260901182809 | 88 | 224 | 1.0 | 1.0 | 0.00 | 0.00 | 0.00 | 73 | 1016.2 |
| 20260901182308 | 87 | 238 | 1.0 | 1.0 | 0.00 | 0.00 | 0.00 | 73 | 1016.1 |
| 20260901181803 | 87 | 308 | 2.0 | 3.0 | 0.00 | 0.00 | 0.00 | 74 | 1016.2 |
| 20260901181303 | 87 | 253 | 2.0 | 3.0 | 0.00 | 0.00 | 0.00 | 74 | 1016.4 |
| 20260901180757 | 87 | 224 | 0.0 | 1.0 | 0.00 | 0.00 | 0.00 | 74 | 1016.4 |
| 20260901180256 | 86 | 258 | 0.0 | 2.0 | 0.00 | 0.00 | 0.00 | 76 | 1016.6 |
| 20260901175755 | 86 | 336 | 1.0 | 2.0 | 0.00 | 0.00 | 0.00 | 77 | 1016.6 |
| 20260901175251 | 86 | 244 | 2.0 | 3.0 | 0.00 | 0.00 | 0.00 | 78 | 1016.5 |
| 20260901174745 | 86 | 151 | 2.0 | 2.0 | 0.00 | 0.00 | 0.00 | 77 | 1016.7 |
| 20260901174241 | 86 | 305 | 0.0 | 2.0 | 0.00 | 0.00 | 0.00 | 76 | 1016.7 |
| 20260901173737 | 87 | 250 | 1.0 | 3.0 | 0.00 | 0.00 | 0.00 | 76 | 1016.9 |
| 20260901173237 | 86 | 232 | 1.0 | 4.0 | 0.00 | 0.00 | 0.00 | 76 | 1017.1 |
| 20260901172734 | 87 | 355 | 4.0 | 6.0 | 0.00 | 0.00 | 0.00 | 75 | 1017.0 |
| 20260901172232 | 87 | 248 | 1.0 | 2.0 | 0.00 | 0.00 | 0.00 | 76 | 1017.2 |
| 20260901171731 | 86 | 321 | 2.0 | 2.0 | 0.00 | 0.00 | 0.00 | 78 | 1017.4 |
| 20260901171230 | 86 | 235 | 0.0 | 3.0 | 0.00 | 0.00 | 0.00 | 77 | 1017.6 |
| 20260901170729 | 86 | 240 | 0.0 | 2.0 | 0.00 | 0.00 | 0.00 | 78 | 1017.6 |
| 20260901170224 | 86 | 310 | 1.0 | 3.0 | 0.00 | 0.00 | 0.00 | 78 | 1017.7 |
| 20260901165722 | 86 | 186 | 2.0 | 3.0 | 0.00 | 0.00 | 0.00 | 78 | 1017.7 |
| 20260901165218 | 85 | 277 | 2.0 | 3.0 | 0.00 | 0.00 | 0.00 | 78 | 1017.7 |
| 20260901164714 | 85 | 4 | 1.0 | 3.0 | 0.00 | 0.00 | 0.00 | 79 | 1017.8 |
| 20260901164214 | 85 | 353 | 3.0 | 3.0 | 0.00 | 0.00 | 0.00 | 79 | 1017.7 |
| 20260901163710 | 85 | 316 | 4.0 | 4.0 | 0.00 | 0.00 | 0.00 | 80 | 1017.7 |
| 20260901163209 | 85 | 270 | 1.0 | 2.0 | 0.00 | 0.00 | 0.00 | 80 | 1017.7 |
| 20260901162704 | 85 | 263 | 2.0 | 4.0 | 0.00 | 0.00 | 0.00 | 81 | 1017.6 |
| 20260901162204 | 85 | 237 | 1.0 | 3.0 | 0.00 | 0.00 | 0.00 | 81 | 1017.7 |
| 20260901161703 | 86 | 268 | 1.0 | 8.0 | 0.00 | 0.00 | 0.00 | 79 | 1017.4 |
| 20260901161203 | 87 | 227 | 0.0 | 1.0 | 0.00 | 0.00 | 0.00 | 78 | 1017.5 |
| 20260901160659 | 86 | 243 | 3.0 | 4.0 | 0.00 | 0.00 | 0.00 | 80 | 1017.4 |
| 20260901160154 | 86 | 327 | 2.0 | 3.0 | 0.00 | 0.00 | 0.00 | 80 | 1017.4 |
| 20260901155653 | 85 | 267 | 1.0 | 2.0 | 0.00 | 0.00 | 0.00 | 80 | 1017.2 |
| 20260901155148 | 85 | 229 | 1.0 | 4.0 | 0.00 | 0.00 | 0.00 | 81 | 1017.3 |
| 20260901154643 | 85 | 353 | 3.0 | 4.0 | 0.00 | 0.00 | 0.00 | 81 | 1017.3 |
| 20260901154138 | 85 | 240 | 1.0 | 3.0 | 0.00 | 0.00 | 0.00 | 80 | 1017.4 |
| 20260901153634 | 85 | 35 | 2.0 | 3.0 | 0.00 | 0.00 | 0.00 | 79 | 1017.4 |
| 20260901153132 | 85 | 240 | 2.0 | 3.0 | 0.00 | 0.00 | 0.00 | 79 | 1017.5 |
| 20260901152628 | 85 | 251 | 1.0 | 2.0 | 0.00 | 0.00 | 0.00 | 79 | 1017.4 |
| 20260901152126 | 85 | 7 | 3.0 | 4.0 | 0.00 | 0.00 | 0.00 | 79 | 1017.6 |
| 20260901151622 | 85 | 12 | 3.0 | 7.0 | 0.00 | 0.00 | 0.00 | 79 | 1017.6 |
| 20260901151122 | 85 | 351 | 3.0 | 4.0 | 0.00 | 0.00 | 0.00 | 79 | 1017.4 |
| 20260901150615 | 85 | 270 | 2.0 | 3.0 | 0.00 | 0.00 | 0.00 | 79 | 1017.5 |
| 20260901150113 | 84 | 255 | 1.0 | 3.0 | 0.00 | 0.00 | 0.00 | 80 | 1017.5 |
| 20260901145607 | 84 | 276 | 2.0 | 3.0 | 0.00 | 0.00 | 0.00 | 81 | 1017.7 |
| 20260901145106 | 84 | 131 | 2.0 | 4.0 | 0.00 | 0.00 | 0.00 | 82 | 1017.5 |
| 20260901144601 | 84 | 343 | 2.0 | 4.0 | 0.00 | 0.00 | 0.00 | 84 | 1017.6 |
| 20260901144056 | 83 | 337 | 1.0 | 3.0 | 0.00 | 0.00 | 0.00 | 86 | 1017.6 |
| 20260901143551 | 83 | 227 | 1.0 | 3.0 | 0.00 | 0.00 | 0.00 | 87 | 1017.5 |
| 20260901143048 | 83 | 224 | 0.0 | 2.0 | 0.00 | 0.00 | 0.00 | 88 | 1017.5 |
| 20260901142543 | 82 | 204 | 0.0 | 2.0 | 0.00 | 0.00 | 0.00 | 89 | 1017.5 |
| 20260901142043 | 82 | 346 | 1.0 | 3.0 | 0.00 | 0.00 | 0.00 | 89 | 1017.3 |
| 20260901141538 | 82 | 3 | 1.0 | 2.0 | 0.00 | 0.00 | 0.00 | 89 | 1017.7 |
| 20260901141033 | 82 | 179 | 0.0 | 1.0 | 0.00 | 0.00 | 0.00 | 90 | 1017.6 |
| 20260901140532 | 81 | 265 | 1.0 | 1.0 | 0.00 | 0.00 | 0.00 | 90 | 1017.8 |
| 20260901140026 | 81 | 270 | 0.0 | 0.0 | 0.00 | 0.00 | 0.00 | 91 | 1017.6 |
| 20260901135526 | 80 | 268 | 0.0 | 2.0 | 0.00 | 0.00 | 0.00 | 91 | 1017.7 |
| 20260901135021 | 80 | 270 | 0.0 | 1.0 | 0.00 | 0.00 | 0.00 | 92 | 1017.7 |
| 20260901134518 | 80 | 265 | 1.0 | 2.0 | 0.00 | 0.00 | 0.00 | 93 | 1017.6 |
| 20260901134017 | 79 | 264 | 1.0 | 2.0 | 0.00 | 0.00 | 0.00 | 94 | 1017.6 |
| 20260901133516 | 78 | 257 | 2.0 | 3.0 | 0.00 | 0.00 | 0.00 | 96 | 1017.5 |
| 20260901133015 | 78 | 177 | 0.0 | 1.0 | 0.00 | 0.00 | 0.00 | 97 | 1017.6 |
| 20260901132515 | 77 | 177 | 1.0 | 2.0 | 0.00 | 0.00 | 0.00 | 98 | 1017.5 |
| 20260901132014 | 77 | 177 | 0.0 | 1.0 | 0.00 | 0.00 | 0.00 | 98 | 1017.4 |
| 20260901131509 | 77 | 177 | 0.0 | 1.0 | 0.00 | 0.00 | 0.00 | 98 | 1017.4 |
| 20260901131004 | 77 | 177 | 0.0 | 0.0 | 0.00 | 0.00 | 0.00 | 99 | 1017.4 |
| 20260901130458 | 77 | 177 | 0.0 | 0.0 | 0.00 | 0.00 | 0.00 | 99 | 1017.3 |
| 20260901125956 | 76 | 177 | 0.0 | 0.0 | 0.00 | 0.00 | 0.00 | 99 | 1017.2 |
| 20260901125457 | 76 | 177 | 0.0 | 0.0 | 0.00 | 0.00 | 0.00 | 99 | 1017.2 |
| 20260901124956 | 76 | 178 | 0.0 | 0.0 | 0.00 | 0.00 | 0.00 | 99 | 1017.2 |
| 20260901124452 | 76 | 178 | 0.0 | 0.0 | 0.00 | 0.00 | 0.00 | 99 | 1017.0 |
| 20260901123946 | 76 | 178 | 0.0 | 0.0 | 0.00 | 0.00 | 0.00 | 99 | 1017.3 |
| 20260901123441 | 76 | 178 | 0.0 | 0.0 | 0.00 | 0.00 | 0.00 | 99 | 1017.0 |
| 20260901122940 | 76 | 178 | 0.0 | 0.0 | 0.00 | 0.00 | 0.00 | 99 | 1016.9 |
| 20260901122439 | 76 | 178 | 0.0 | 0.0 | 0.00 | 0.00 | 0.00 | 99 | 1016.9 |
| 20260901121939 | 76 | 178 | 0.0 | 0.0 | 0.00 | 0.00 | 0.00 | 99 | 1016.8 |
| 20260901121434 | 76 | 178 | 0.0 | 0.0 | 0.00 | 0.00 | 0.00 | 99 | 1016.7 |
| 20260901120929 | 76 | 178 | 0.0 | 0.0 | 0.00 | 0.00 | 0.00 | 98 | 1016.6 |